Location: *
(51.0333°S, 178.4667°E)
Time: 10:41:49
(UTC+00:00)

STARLINK-60 - Pass Details

Date: 15 November 2019
Orbit: 416 x 424 km, 53.0° (Epoch: 11 December)

Event Time Altitude Azimuth Distance (km) Brightness Sun altitude
Rises 08:04:30 0° 252° (WSW) 2,437 8.6 -4.8°
Reaches altitude 10° 08:06:38 10° 253° (WSW) 1,565 7.3 -5.0°
Maximum altitude 08:10:09 81° 338° (NNW) 453 3.2 -5.5°
Drops below altitude 10° 08:13:39 10° 66° (ENE) 1,551 5.3 -5.9°
Enters shadow 08:14:13 - 66° (ENE) 1,781 5.6 -6.0°
